Regional Weather Roundup
Issued by NWS

Home | Current Version | Previous Version | Text Only | Print | Product List | Glossary Off
Versions: 1 2 3 4 5 6 7 8 9 10 11 12 13 14 15 16 17 18 19 20 21 22 23 24 25 26 27 28 29 30 31 32 33 34 35 36 37 38 39 40 41 42 43 44 45 46 47 48 49 50

000
ASUS43 KLMK 161410
RWRKY
KENTUCKY REGIONAL WEATHER ROUNDUP
NATIONAL WEATHER SERVICE LOUISVILLE KY
900 AM EST SAT DEC 16 2017

NOTE "FAIR" INDICATES FEW OR NO CLOUDS BELOW 12,000 FEET
WITH NO SIGNIFICANT WEATHER AND/OR OBSTRUCTIONS TO VISIBILITY.

KYZ001>023-026-027-061>063-070>075-161500-
WESTERN AND SOUTH CENTRAL KENTUCKY

CITY           SKY/WX    TMP DP  RH WIND       PRES   REMARKS
PADUCAH        CLEAR     34  26  72 SW9       30.14S WCI  27
HENDERSON      CLEAR     34  28  79 S8        30.13R WCI  27
OWENSBORO      CLEAR     34  28  79 S12       30.15R WCI  25
HOPKINSVILLE   CLEAR     35  26  69 S12       30.18S WCI  26
BOWLING GREEN  SUNNY     33  27  78 S10       30.20S WCI  25
GLASGOW        SUNNY     32  26  77 S7        30.19F WCI  26
$$

KYZ024-025-028>034-038-045-046-053-161500-
NORTH CENTRAL KENTUCKY

CITY           SKY/WX    TMP DP  RH WIND       PRES   REMARKS
LOUISVILLE/SDF CLEAR     35  26  69 S9        30.14S WCI  28
LOUISVILLE/LOU CLEAR     33  27  78 S7        30.14S WCI  27
FORT KNOX      CLEAR     32  25  74 S12       30.12S WCI  23
$$

KYZ035>037-039>044-047>052-055>060-089>105-161500-
NORTHEAST KENTUCKY

CITY           SKY/WX    TMP DP  RH WIND       PRES   REMARKS
LEXINGTON      SUNNY     32  24  72 S12       30.14S WCI  23
COVINGTON      CLEAR     33  26  75 SW14G21   30.06F WCI  23
FRANKFORT      SUNNY     33  23  66 S13       30.13S WCI  24
$$

KYZ054-064>069-076>088-106>120-161500-
SOUTHEAST KENTUCKY

CITY           SKY/WX    TMP DP  RH WIND       PRES   REMARKS
JACKSON        SUNNY     32  22  66 SW6       30.17S WCI  26
LONDON         SUNNY     31  22  69 S3        30.21R
SOMERSET       SUNNY     32  23  69 S7        30.22F WCI  26
MIDDLESBORO    SUNNY     24  22  92 CALM      30.26S
MONTICELLO     SUNNY     33  31  92 E5        30.23S WCI  29
$$





USA.gov is the U.S. government's official web portal to all federal, state and local government web resources and services.